[Date Prev][Date Next][Thread Prev][Thread Next] - [Date Index][Thread Index][Author Index]

2 Line ISS Keps 6-8



ISS
1 25544U 98067A   03159.14608644  .00018438  00000-0  23529-3 0   923
2 25544  51.6326  65.6718 0006552 228.0562 283.0344 15.59314626259597


----
Via the sarex mailing list at AMSAT.ORG courtesy of AMSAT-NA.
To unsubscribe, send "unsubscribe sarex" to Majordomo@amsat.org



AMSAT Top AMSAT Home